Location: Casco Millpond
(44.5581°N, 87.6111°W)
Time: 08:30:54
(UTC+00:00)

Cosmos 1933 Rocket - Pass Details

Date: 16 January 2026
Orbit: 600 x 623 km, 82.5° (Epoch: 9 February)

Event Time Altitude Azimuth Distance (km) Brightness Sun altitude
Rises 23:38:23 0° 356° (N) 2,899 6.9 -10.7°
Reaches altitude 10° 23:40:41 10° 1° (N) 1,985 6.0 -11.1°
Maximum altitude 23:44:58 51° 78° (ENE) 772 3.7 -11.8°
Drops below altitude 10° 23:49:12 10° 155° (SSE) 1,955 6.0 -12.5°
Sets 23:51:26 0° 160° (SSE) 2,850 6.9 -12.9°
